Location: Endfield
(51.6667°N, 0.0667°W)
Time: 05:44:13
(UTC+00:00)

Cosmos-2242 - Pass Details

Date: 19 May 2024
Orbit: 581 x 603 km, 82.5° (Epoch: 19 June)

Event Time Altitude Azimuth Distance (km) Brightness Sun altitude
Rises 20:50:52 0° 206° (SSW) 2,796 6.2 -7.6°
Reaches altitude 10° 20:53:08 10° 213° (SSW) 1,904 5.4 -7.9°
Maximum altitude 20:57:10 44° 286° (WNW) 819 4.2 -8.3°
Drops below altitude 10° 21:01:15 10° 360° (N) 1,931 6.4 -8.7°
Sets 21:03:33 0° 7° (N) 2,841 7.2 -8.9°
